This is the latest recevied weather packets stored in our database for station/object W7JFO-3. If no packets are shown the sender has not sent any weather packets the latest 10 day(s).
| Time | Temp. | Humidity | Pressure | Rain* | Wind** | Luminosity | Snow |
|---|---|---|---|---|---|---|---|
| 1777183326 | 0° C | 78% | 1010.7 hPa | 0 mm | - | 0 W/m² | - |
| 1777182426 | 0.56° C | 76% | 1010.7 hPa | 0 mm | - | 0 W/m² | - |
| 1777181526 | 0.56° C | 74% | 1010.8 hPa | 0 mm | - | 0 W/m² | - |
| 1777180626 | 1.11° C | 71% | 1011.1 hPa | 0 mm | - | 0 W/m² | - |
| 1777179726 | 1.11° C | 69% | 1010.8 hPa | 0 mm | - | 0 W/m² | - |
| 1777178826 | 1.11° C | 72% | 1010.8 hPa | 0 mm | - | 0 W/m² | - |
| 1777177926 | 1.67° C | 69% | 1010.9 hPa | 0 mm | - | 0 W/m² | - |
| 1777177026 | 1.67° C | 66% | 1011 hPa | 0 mm | - | 0 W/m² | - |
| 1777176126 | 1.67° C | 65% | 1011.3 hPa | 0 mm | - | 0 W/m² | - |
| 1777175226 | 2.22° C | 61% | 1011.5 hPa | 0 mm | - | 0 W/m² | - |
| 1777174326 | 2.22° C | 59% | 1011.6 hPa | 0 mm | - | 0 W/m² | - |
| 1777173426 | 2.78° C | 57% | 1011.5 hPa | 0 mm | - | 0 W/m² | - |
| 1777172527 | 2.22° C | 58% | 1011.3 hPa | 0 mm | - | 0 W/m² | - |
| 1777171627 | 2.78° C | 56% | 1011.2 hPa | 0 mm | - | 0 W/m² | - |
| 1777170727 | 2.78° C | 56% | 1011.1 hPa | 0 mm | - | 0 W/m² | - |
| 1777169827 | 3.33° C | 54% | 1011.1 hPa | 0 mm | - | 11 W/m² | - |
| 1777168927 | 3.89° C | 54% | 1011.1 hPa | 0 mm | - | 28 W/m² | - |
| 1777168027 | 3.89° C | 55% | 1011.1 hPa | 0 mm | - | 54 W/m² | - |
| 1777167127 | 3.89° C | 50% | 1011 hPa | 0 mm | - | 60 W/m² | - |
| 1777166227 | 3.89° C | 50% | 1010.9 hPa | 0 mm | - | 74 W/m² | - |
| 1777165327 | 3.89° C | 49% | 1011 hPa | 0 mm | - | 95 W/m² | - |
| 1777164427 | 4.44° C | 50% | 1011.1 hPa | 0 mm | - | 174 W/m² | - |
| 1777163527 | 4.44° C | 48% | 1011.2 hPa | 0 mm | - | 229 W/m² | - |
| 1777162627 | 4.44° C | 46% | 1011.2 hPa | 0 mm | - | 346 W/m² | - |
| 1777161727 | 4.44° C | 46% | 1011.1 hPa | 0 mm | - | 283 W/m² | - |
* Rain latest hour (hover to see other rain measurements)
** Current wind speed in m/s (hover to see current wind gust speed)